Wind_Speed
2 3 5 5 5 5 3 2 3 3 3 4 6 9 13 15 15 15 16 18 20 23 24 26 27 29 31 32 34 35 35 36 38 38 39 38 38 37 36 36 35 34 33 32 31 29 28 28 28
6 2 2 2 1 3 3 3 2 2 1 1 3 5 7 9 10 11 11 13 15 17 19 20 22 24 25 27 28 30 31 33 35 36 37 38 39 40 40 40 39 38 38 36 35 34 32 32 32
9 9 7 8 9 9 8 7 6 7 5 3 2 2 3 6 8 10 12 13 15 17 18 20 21 22 24 25 27 28 30 32 34 35 36 38 39 39 40 41 42 41 41 40 39 38 37 36 36
12 12 12 13 13 12 11 9 7 5 3 3 3 4 6 8 10 13 15 17 18 19 20 21 23 24 26 28 29 31 33 34 36 37 38 40 41 41 41 41 42 43 43 43 42 41 40 39 39
11 11 10 10 10 9 7 7 6 7 6 6 7 7 9 10 12 14 16 17 18 20 21 23 25 26 28 30 32 34 36 37 38 40 41 43 44 45 46 45 45 45 45 46 45 44 43 42 42
9 10 10 10 9 8 8 8 8 8 8 9 9 10 10 11 12 14 15 18 20 23 25 27 29 31 33 35 36 38 40 41 42 43 44 45 46 47 48 49 50 50 50 48 48 48 47 45 44
11 11 11 11 10 10 10 11 12 12 11 11 11 11 11 12 14 16 19 22 25 28 31 33 35 38 40 42 44 45 46 47 47 48 49 49 50 51 51 52 52 52 53 53 52 51 51 50 48
11 11 12 11 11 13 14 13 13 12 12 12 13 14 15 17 20 23 26 29 32 35 38 40 43 46 48 50 52 53 54 55 55 55 55 55 55 55 56 56 56 56 56 55 55 55 55 54 53
12 12 13 13 14 15 15 15 15 16 16 18 19 21 22 24 26 29 32 35 38 42 45 48 51 54 57 59 61 62 64 64 65 65 65 64 63 62 62 62 61 61 60 59 59 58 57 57 56
12 13 14 14 14 15 15 15 16 16 17 19 20 22 25 27 31 34 38 42 45 49 52 55 58 61 64 66 68 70 70 71 72 73 73 72 70 69 69 68 68 67 65 64 62 62 61 60 58
12 12 12 11 11 11 11 11 13 14 17 21 24 27 30 33 38 42 45 48 52 55 58 62 65 67 70 72 74 76 76 77 76 76 76 76 74 71 70 70 71 72 72 70 68 66 66 64 62
9 8 8 8 8 9 10 11 14 17 21 26 29 33 36 39 43 46 49 52 56 59 63 67 70 73 75 77 78 80 82 82 81 81 81 80 78 74 72 70 71 72 74 75 75 72 71 69 67
5 5 5 7 8 10 13 15 18 22 26 30 33 36 40 43 46 48 52 55 59 63 67 71 74 77 79 80 81 83 84 85 85 87 88 87 84 82 79 76 74 74 74 75 77 78 77 74 73
4 5 6 8 10 13 16 19 21 24 28 31 34 38 41 45 48 52 56 60 64 69 73 77 79 80 81 83 86 87 87 87 88 89 88 87 86 86 86 84 82 80 78 78 78 79 80 79 77
6 7 9 11 13 15 16 19 24 27 30 34 37 41 45 48 51 56 60 65 69 74 77 80 82 83 86 89 90 90 90 90 87 82 79 76 75 75 78 79 80 80 79 78 80 82 82 83 82
8 10 12 14 15 17 20 20 26 30 33 37 41 45 49 53 56 61 66 70 74 77 80 82 85 88 90 90 89 88 85 79 72 65 61 59 58 58 59 62 65 69 72 73 75 80 84 85 85
12 13 13 17 19 20 23 26 30 33 37 41 45 49 53 57 61 65 69 73 76 78 81 85 88 89 90 87 83 77 70 63 58 55 56 57 57 56 56 56 57 59 62 64 67 72 81 86 88
14 16 17 18 21 23 25 28 31 35 41 45 48 52 56 60 65 69 73 76 78 81 85 88 88 88 84 77 70 65 61 59 58 58 59 60 61 61 60 59 57 57 56 55 56 62 72 83 89
14 16 17 20 23 25 26 28 32 38 42 45 50 55 60 65 70 73 76 79 82 85 87 87 86 82 76 72 68 66 64 64 64 65 65 65 65 64 62 60 58 58 57 55 54 53 57 71 85
15 17 18 17 21 26 28 29 32 39 43 48 53 59 64 70 74 76 79 81 84 85 86 85 81 77 75 73 72 70 68 66 65 64 63 63 63 63 62 62 60 59 59 58 56 53 50 54 69
18 20 21 22 23 27 33 32 35 41 46 52 57 63 69 74 77 78 81 83 84 84 83 81 79 78 75 70 65 60 55 52 51 50 50 50 50 51 53 56 58 59 58 59 59 56 52 49 53
19 19 20 24 27 28 31 38 40 45 51 57 62 67 74 78 78 80 83 85 85 84 82 81 79 74 66 60 56 53 51 50 49 48 48 47 46 45 45 46 48 52 54 56 60 60 55 52 49
19 20 23 26 28 29 33 41 46 51 56 61 66 72 77 79 80 82 84 86 85 82 81 79 72 64 59 56 54 53 53 55 55 53 51 48 47 45 44 44 44 44 47 51 56 60 58 54 51
20 21 23 28 32 37 42 45 49 53 59 65 71 76 78 80 81 83 85 84 82 82 80 72 65 60 57 56 55 56 57 58 57 55 52 49 47 46 46 44 44 44 43 46 51 56 58 55 52
22 25 29 33 37 40 43 45 50 57 63 68 72 76 79 81 82 84 84 82 81 81 74 66 62 60 58 57 57 58 59 60 58 55 51 48 46 45 45 44 43 43 43 43 46 52 55 54 51
23 25 28 33 36 38 44 49 54 59 63 68 72 77 79 81 82 84 83 81 81 76 68 64 62 61 60 59 58 60 61 59 55 51 48 46 45 44 44 43 42 41 41 41 42 46 51 53 50
24 26 28 33 38 44 47 51 55 60 65 69 74 78 79 81 83 83 81 81 78 70 65 64 63 61 60 59 59 61 61 56 51 48 48 47 46 46 45 43 41 39 38 39 40 42 46 50 48
25 28 32 35 41 46 49 52 57 61 66 72 76 77 80 81 82 80 80 80 73 66 64 64 63 62 60 59 61 61 57 52 50 50 50 48 46 45 43 41 40 37 35 37 38 40 42 45 45
26 29 33 37 41 46 51 54 58 62 67 73 77 78 80 80 80 79 80 76 68 64 63 63 63 62 61 61 60 58 55 52 51 51 50 49 47 45 42 40 39 37 33 34 36 38 38 40 43
27 32 35 38 41 44 49 55 59 63 68 74 77 77 78 79 79 80 78 71 65 63 63 63 63 63 62 61 58 56 54 53 52 52 51 51 49 47 45 43 40 38 34 32 33 35 35 36 40
Wind_Direction
142 221 201 199 222 237 267 302 272 265 284 282 278 283 291 296 295 292 287 283 280 281 282 280 278 278 278 276 275 274 274 274 272 271 269 268 266 264 263 263 263 262 261 260 259 258 256 252 247
108 119 162 166 124 69 56 42 19 34 35 318 296 290 291 295 304 304 302 301 300 298 296 294 293 292 290 287 283 281 279 278 277 275 274 272 269 267 265 263 261 260 260 259 257 256 254 251 247
92 78 66 75 79 79 77 74 72 78 84 81 54 336 313 308 308 306 306 308 310 310 309 306 302 299 296 293 289 286 284 281 279 277 276 275 272 269 267 265 263 260 257 256 255 254 252 249 246
84 83 75 77 79 78 79 80 77 74 61 40 17 342 325 319 316 316 319 320 318 314 309 303 299 296 293 290 287 285 283 281 280 278 277 275 274 272 269 266 264 263 259 255 253 253 252 250 247
78 78 75 70 70 69 65 62 54 44 27 18 11 2 348 338 336 334 330 324 318 315 312 308 304 301 298 296 293 290 287 285 282 280 277 276 274 273 271 268 266 264 263 262 258 255 253 252 250
66 65 65 61 58 58 56 54 48 41 32 23 17 8 358 348 341 334 326 321 318 315 313 311 309 307 304 301 299 296 293 291 288 286 284 281 278 276 273 271 269 266 264 263 262 260 256 253 251
58 57 60 62 62 57 50 45 42 40 35 27 19 6 357 345 336 331 327 325 322 320 318 316 313 310 308 305 303 300 297 294 291 288 286 284 282 280 278 275 272 269 265 262 260 260 259 256 252
61 60 60 58 54 49 47 46 44 40 29 19 9 358 349 342 337 332 328 325 321 318 316 314 312 310 307 305 303 300 297 294 291 288 285 282 281 279 277 276 274 271 268 265 261 258 256 256 253
59 60 57 54 53 50 45 36 28 21 14 7 358 350 343 336 331 326 323 320 317 315 313 312 311 309 307 305 303 301 299 296 293 290 287 284 281 278 275 273 271 270 269 266 263 260 257 254 252
66 66 63 58 53 46 36 25 15 7 359 348 341 336 333 329 325 323 321 319 317 314 313 311 309 307 305 303 302 300 298 295 293 290 288 285 282 279 276 272 269 267 266 265 264 262 259 256 252
75 71 63 52 40 30 20 9 0 351 343 340 337 334 330 327 325 323 321 318 316 314 312 310 308 306 304 303 302 300 298 295 293 290 287 285 282 279 276 273 269 265 263 262 261 261 259 257 254
81 71 55 37 20 8 358 349 342 341 340 338 335 332 329 326 324 321 319 317 315 313 311 309 308 306 305 304 302 300 298 296 293 291 288 286 283 279 276 272 269 265 261 259 257 257 257 256 255
74 45 25 7 356 351 346 340 337 335 334 332 330 328 326 323 320 318 316 314 313 312 310 310 309 308 306 304 302 300 298 296 293 291 289 287 285 281 277 272 268 265 262 258 255 253 253 253 252
19 354 345 338 336 339 339 333 330 328 325 323 323 322 320 319 318 317 315 314 313 312 312 311 311 309 307 305 303 302 299 296 293 290 288 285 282 278 276 273 269 265 260 256 253 250 249 249 249
334 325 325 327 328 330 331 325 322 322 320 320 321 320 319 318 317 315 315 314 313 312 312 312 311 309 308 307 305 302 299 297 295 292 288 284 280 277 274 273 271 269 265 258 252 248 246 245 245
311 317 320 325 328 327 324 322 320 322 322 323 322 321 319 317 317 317 316 316 315 314 313 312 311 311 310 308 305 303 301 300 297 292 286 281 278 277 276 274 273 271 269 264 257 249 244 242 242
306 309 321 327 327 325 324 326 326 327 325 324 323 321 319 318 318 318 318 318 318 317 316 315 315 314 312 309 308 307 306 303 297 289 284 282 281 280 279 277 275 273 270 266 260 251 244 240 239
315 319 323 326 324 327 328 331 331 328 326 324 323 321 320 319 320 321 321 321 320 320 319 319 318 316 313 312 311 309 306 301 296 291 286 284 283 282 280 277 274 272 269 267 263 255 244 239 236
322 322 324 327 326 329 332 335 333 325 325 325 325 324 323 322 323 323 322 322 322 322 322 321 318 316 315 314 311 307 303 299 295 292 289 287 284 282 279 276 273 270 266 263 262 260 252 242 236
324 321 321 324 326 330 332 335 331 326 328 329 328 327 326 325 326 325 324 324 325 324 323 321 319 318 317 315 312 309 306 303 300 298 295 292 288 284 280 275 271 268 263 258 257 258 256 251 243
321 321 325 330 335 335 330 329 332 329 330 330 330 329 328 328 329 328 327 327 326 325 324 323 322 321 319 318 317 316 316 314 311 308 305 301 297 292 285 279 273 268 263 255 251 253 255 254 251
322 328 333 334 335 334 328 330 336 333 333 333 332 332 332 333 331 329 328 328 327 326 326 325 324 324 323 324 324 324 323 321 318 315 311 308 305 300 293 287 279 270 264 256 249 248 252 253 252
333 336 335 332 331 331 334 338 340 337 335 334 335 336 336 334 332 330 330 329 328 327 327 327 327 326 326 326 326 326 325 323 321 318 314 310 306 303 298 292 286 277 267 258 251 247 248 251 250
337 334 332 334 336 341 342 341 338 336 337 337 338 337 336 334 333 332 331 329 329 328 329 330 329 327 327 328 327 326 325 323 321 318 315 311 307 303 299 294 288 282 273 262 253 247 246 247 249
340 340 339 340 341 340 337 338 340 340 340 340 338 336 335 334 334 333 331 330 329 330 331 332 331 330 330 329 328 327 326 324 322 320 318 315 311 307 302 297 291 284 276 267 257 249 245 244 247
343 340 338 338 336 336 338 342 342 340 340 339 336 335 336 336 335 334 333 331 331 332 334 334 333 332 332 331 330 330 329 327 325 323 322 319 317 314 310 305 297 287 277 269 261 253 246 243 244
342 339 339 337 337 341 343 341 341 341 339 338 337 338 338 338 336 335 333 332 333 335 336 336 335 335 334 334 333 332 331 330 328 326 324 321 319 317 315 311 305 294 280 269 261 255 247 242 242
340 339 338 341 342 340 341 343 341 340 340 339 339 339 340 339 337 336 335 334 335 337 337 337 337 337 337 336 334 335 335 333 331 329 327 324 321 320 318 316 311 303 287 272 262 253 248 243 241
340 340 342 342 342 341 340 341 339 341 342 341 341 342 341 340 338 337 336 336 337 339 339 339 340 340 340 338 338 339 338 336 333 331 329 327 324 321 319 317 315 310 297 280 266 253 246 242 240
340 340 341 340 340 339 337 338 340 342 342 343 343 343 341 340 339 338 338 338 340 341 341 341 342 342 342 342 342 341 340 338 336 334 332 329 325 321 318 315 313 311 304 289 272 254 242 238 237
Height
5856 5856 5856 5857 5859 5859 5860 5862 5863 5865 5866 5867 5868 5868 5867 5866 5867 5869 5866 5864 5863 5862 5861 5860 5859 5858 5858 5857 5856 5855 5854 5854 5853 5852 5851 5851 5850 5849 5849 5850 5850 5850 5851 5851 5852 5852 5853 5853 5854
5856 5857 5858 5858 5858 5860 5861 5862 5863 5865 5866 5866 5867 5867 5867 5865 5865 5864 5862 5861 5861 5860 5859 5858 5857 5856 5855 5853 5852 5851 5849 5848 5846 5845 5844 5844 5843 5843 5843 5842 5842 5843 5843 5844 5845 5846 5846 5847 5848
5857 5859 5861 5859 5858 5861 5862 5863 5864 5865 5866 5866 5866 5866 5865 5864 5863 5862 5861 5860 5859 5859 5857 5855 5854 5852 5851 5849 5847 5845 5843 5841 5840 5838 5837 5836 5835 5835 5835 5835 5835 5835 5835 5836 5837 5838 5839 5840 5842
5860 5862 5861 5860 5860 5863 5864 5865 5866 5866 5866 5866 5866 5866 5864 5863 5862 5861 5860 5858 5857 5855 5854 5852 5850 5848 5846 5844 5841 5839 5837 5835 5833 5831 5829 5828 5827 5826 5826 5826 5827 5827 5827 5827 5828 5829 5830 5832 5833
5862 5863 5862 5861 5863 5864 5865 5865 5866 5866 5866 5865 5865 5864 5862 5862 5860 5859 5857 5855 5853 5851 5849 5847 5844 5842 5840 5837 5835 5833 5830 5828 5826 5824 5821 5820 5819 5817 5816 5817 5817 5817 5818 5819 5819 5819 5821 5822 5824
5864 5863 5864 5864 5865 5865 5865 5866 5866 5866 5865 5865 5864 5863 5862 5861 5859 5857 5855 5853 5851 5848 5846 5843 5840 5838 5835 5832 5830 5827 5824 5822 5819 5816 5814 5812 5810 5808 5807 5806 5806 5806 5806 5807 5808 5809 5810 5812 5814
5865 5865 5865 5866 5866 5866 5867 5867 5867 5867 5866 5865 5865 5864 5862 5860 5859 5857 5854 5852 5849 5846 5843 5839 5836 5833 5829 5826 5823 5819 5816 5813 5810 5807 5804 5802 5800 5798 5797 5796 5794 5794 5794 5795 5796 5798 5799 5801 5803
5866 5867 5867 5867 5868 5868 5869 5869 5868 5867 5866 5866 5865 5864 5861 5859 5857 5854 5852 5849 5845 5842 5838 5834 5830 5826 5822 5817 5813 5809 5805 5802 5798 5795 5793 5791 5789 5787 5786 5784 5783 5782 5781 5782 5783 5785 5787 5789 5792
5869 5869 5869 5870 5870 5870 5870 5869 5869 5867 5867 5866 5864 5862 5860 5857 5854 5851 5847 5843 5839 5835 5830 5825 5820 5815 5810 5805 5800 5795 5791 5787 5783 5780 5777 5775 5774 5773 5772 5770 5769 5769 5768 5768 5770 5771 5773 5775 5778
5872 5871 5871 5872 5872 5871 5870 5870 5870 5868 5866 5865 5863 5860 5857 5854 5850 5846 5842 5837 5832 5826 5821 5815 5809 5803 5797 5791 5785 5780 5775 5770 5765 5761 5758 5757 5755 5754 5753 5752 5752 5752 5752 5754 5755 5756 5758 5759 5762
5874 5874 5874 5873 5873 5872 5871 5870 5869 5867 5865 5863 5861 5858 5853 5849 5845 5841 5836 5830 5824 5818 5812 5805 5798 5791 5784 5778 5771 5764 5758 5752 5746 5741 5738 5736 5734 5732 5730 5730 5731 5732 5733 5736 5739 5740 5741 5743 5747
5876 5875 5875 5874 5873 5871 5870 5869 5867 5865 5863 5860 5857 5853 5849 5845 5840 5835 5829 5823 5817 5809 5801 5793 5785 5777 5769 5761 5753 5746 5738 5732 5725 5720 5715 5714 5711 5708 5707 5706 5707 5708 5711 5715 5718 5720 5722 5726 5730
5877 5876 5875 5873 5872 5870 5869 5868 5866 5863 5860 5856 5852 5849 5845 5840 5834 5828 5822 5815 5807 5798 5788 5779 5770 5761 5752 5743 5734 5725 5717 5709 5701 5695 5690 5688 5685 5682 5681 5680 5681 5683 5687 5691 5693 5697 5701 5706 5711
5878 5876 5874 5873 5872 5870 5869 5867 5864 5861 5857 5853 5850 5845 5840 5834 5828 5821 5813 5804 5795 5785 5775 5765 5754 5744 5734 5724 5713 5703 5693 5684 5676 5668 5663 5660 5657 5655 5653 5652 5653 5655 5660 5664 5667 5671 5677 5683 5689
5876 5876 5874 5872 5871 5870 5869 5865 5861 5858 5854 5850 5845 5840 5834 5828 5820 5811 5802 5792 5782 5771 5760 5748 5737 5725 5713 5701 5688 5676 5665 5655 5647 5640 5635 5632 5628 5626 5625 5625 5624 5626 5630 5634 5639 5644 5651 5658 5665
5875 5875 5873 5871 5869 5867 5867 5863 5858 5854 5850 5845 5838 5832 5826 5818 5809 5800 5790 5779 5767 5755 5743 5731 5718 5705 5692 5678 5664 5652 5640 5630 5623 5616 5612 5609 5606 5603 5602 5601 5600 5600 5601 5604 5610 5616 5624 5632 5639
5874 5873 5871 5869 5866 5864 5862 5859 5854 5849 5843 5838 5832 5825 5817 5808 5799 5790 5779 5767 5753 5740 5727 5714 5699 5685 5671 5656 5642 5630 5620 5611 5604 5599 5595 5591 5587 5584 5583 5581 5580 5579 5578 5579 5581 5587 5595 5604 5612
5872 5870 5869 5867 5863 5861 5858 5855 5850 5844 5838 5833 5826 5818 5808 5799 5789 5779 5766 5753 5738 5724 5709 5694 5679 5663 5649 5636 5624 5615 5605 5596 5589 5583 5578 5573 5568 5565 5563 5562 5561 5560 5559 5559 5558 5561 5567 5575 5584
5870 5869 5867 5864 5860 5857 5854 5852 5846 5839 5834 5827 5819 5810 5801 5790 5778 5765 5752 5738 5723 5708 5692 5676 5660 5644 5631 5619 5609 5600 5591 5581 5573 5565 5558 5553 5548 5544 5542 5541 5540 5540 5541 5540 5540 5541 5544 5549 5556
5869 5867 5864 5863 5859 5854 5851 5849 5844 5835 5828 5821 5812 5803 5791 5778 5765 5751 5737 5722 5707 5691 5675 5658 5642 5628 5615 5602 5591 5580 5571 5561 5553 5545 5538 5531 5526 5522 5519 5518 5517 5518 5520 5521 5522 5524 5526 5529 5533
5867 5864 5861 5858 5856 5851 5846 5844 5839 5829 5822 5814 5804 5791 5778 5765 5752 5738 5723 5707 5691 5675 5658 5641 5626 5612 5599 5586 5575 5564 5555 5546 5537 5530 5522 5514 5507 5502 5498 5496 5495 5495 5497 5500 5503 5506 5509 5513 5515
5864 5861 5858 5855 5852 5848 5844 5836 5831 5822 5814 5803 5793 5781 5769 5755 5742 5726 5710 5694 5677 5660 5642 5627 5612 5598 5584 5572 5561 5551 5542 5533 5525 5517 5509 5502 5494 5488 5483 5478 5475 5474 5475 5478 5482 5487 5491 5496 5499
5862 5859 5856 5852 5848 5844 5838 5830 5824 5814 5805 5795 5784 5772 5759 5745 5730 5714 5697 5680 5662 5645 5629 5614 5599 5586 5573 5562 5551 5541 5531 5521 5512 5504 5496 5489 5482 5475 5470 5465 5460 5457 5457 5458 5462 5467 5473 5478 5482
5859 5857 5854 5849 5842 5836 5830 5824 5818 5809 5799 5788 5775 5763 5750 5735 5719 5702 5685 5667 5649 5633 5618 5603 5590 5577 5564 5553 5542 5531 5521 5510 5500 5491 5483 5475 5468 5462 5456 5451 5447 5443 5441 5441 5443 5447 5453 5459 5464
5857 5853 5848 5842 5836 5833 5828 5822 5814 5802 5791 5780 5768 5756 5741 5725 5709 5692 5675 5657 5639 5624 5608 5593 5581 5568 5556 5544 5533 5521 5510 5499 5488 5478 5469 5462 5455 5448 5442 5437 5433 5429 5427 5425 5426 5429 5434 5440 5446
5855 5851 5847 5841 5836 5832 5823 5813 5807 5796 5785 5774 5762 5747 5731 5715 5699 5681 5663 5645 5630 5613 5598 5585 5572 5560 5548 5536 5524 5512 5500 5488 5477 5467 5458 5450 5442 5435 5429 5423 5418 5414 5412 5411 5411 5413 5417 5423 5429
5853 5848 5845 5839 5832 5823 5817 5810 5800 5789 5780 5768 5754 5738 5723 5706 5688 5670 5652 5636 5620 5604 5590 5577 5564 5551 5539 5527 5515 5503 5490 5478 5467 5458 5449 5440 5432 5424 5416 5409 5403 5399 5396 5396 5397 5398 5401 5407 5413
5851 5845 5841 5834 5826 5818 5812 5804 5795 5784 5774 5760 5745 5730 5714 5698 5679 5660 5643 5627 5610 5596 5583 5570 5556 5543 5530 5518 5505 5493 5481 5469 5459 5450 5440 5431 5421 5413 5405 5397 5391 5386 5382 5381 5381 5383 5387 5392 5398
5848 5843 5836 5830 5823 5814 5804 5801 5789 5778 5765 5752 5737 5721 5705 5689 5670 5652 5636 5619 5604 5590 5576 5563 5549 5536 5523 5511 5498 5485 5473 5462 5451 5441 5430 5421 5411 5402 5394 5387 5380 5374 5370 5367 5366 5369 5374 5379 5384
5844 5838 5833 5827 5820 5811 5801 5795 5782 5771 5758 5744 5728 5713 5697 5680 5662 5645 5628 5612 5598 5584 5570 5556 5543 5529 5516 5503 5490 5478 5466 5454 5443 5432 5421 5411 5401 5391 5382 5375 5368 5363 5358 5354 5353 5355 5361 5366 5371